GW3271 Weather Reports


Display with metric or nautical units.
time (UTC)temp
F
wind
direction
speed
MPH
gust
MPH
rain 1hr
in
rain 24hr
in
rain mn
in
humidity
%
barometer
mb
20260901203042 97 0 1.0 3.0 0.00 0.00 0.00 43 1013.8
20260901201531 96 94 0.0 7.0 0.00 0.00 0.00 45 1014.0
20260901200038 98 86 2.0 7.0 0.00 0.00 0.00 44 1014.2
20260901194538 97 53 2.0 7.0 0.00 0.00 0.00 45 1014.3
20260901193038 99 16 0.0 6.0 0.00 0.00 0.00 44 1014.4
20260901191534 96 275 2.0 10.0 0.00 0.00 0.00 46 1014.6
20260901190034 97 87 2.0 6.0 0.00 0.00 0.00 44 1014.7
20260901184530 97 142 4.0 7.0 0.00 0.00 0.00 44 1015.1
20260901183036 97 60 2.0 8.0 0.00 0.00 0.00 45 1015.4
20260901181532 95 91 2.0 6.0 0.00 0.00 0.00 48 1015.6
20260901180036 95 89 2.0 8.0 0.00 0.00 0.00 49 1015.9
20260901174534 96 293 1.0 7.0 0.00 0.00 0.00 48 1016.4
20260901173030 95 70 3.0 6.0 0.00 0.00 0.00 48 1016.5
20260901171542 94 162 2.0 5.0 0.00 0.00 0.00 51 1016.6
20260901170032 93 8 1.0 5.0 0.00 0.00 0.00 51 1016.9
20260901164531 93 112 0.0 5.0 0.00 0.00 0.00 52 1017.0
20260901163039 93 244 0.0 4.0 0.00 0.00 0.00 53 1017.2
20260901161546 92 235 1.0 3.0 0.00 0.00 0.00 56 1017.2
20260901160032 90 127 2.0 5.0 0.00 0.00 0.00 57 1017.3
20260901154531 89 67 0.0 3.0 0.00 0.00 0.00 63 1017.4
20260901153043 89 87 1.0 4.0 0.00 0.00 0.00 62 1017.3
20260901151534 89 0 0.0 1.0 0.00 0.00 0.00 64 1017.2
20260901150031 88 0 0.0 2.0 0.00 0.00 0.00 66 1017.3
20260901144532 87 224 0.0 2.0 0.00 0.00 0.00 68 1017.3
20260901143033 86 65 0.0 2.0 0.00 0.00 0.00 72 1017.5
20260901141533 85 0 0.0 1.0 0.00 0.00 0.00 73 1017.6
20260901140035 85 0 0.0 2.0 0.00 0.00 0.00 74 1017.6
20260901134535 85 0 0.0 0.0 0.00 0.00 0.00 76 1017.4
20260901133034 83 0 0.0 0.0 0.00 0.00 0.00 79 1017.1
20260901131533 81 0 0.0 0.0 0.00 0.00 0.00 82 1017.0
20260901130034 79 0 0.0 0.0 0.00 0.00 0.00 86 1017.0
20260901124539 78 0 0.0 0.0 0.00 0.00 0.00 88 1016.7
20260901123041 76 0 0.0 0.0 0.00 0.00 0.00 89 1016.5
20260901121538 76 0 0.0 0.0 0.00 0.00 0.00 89 1016.4
20260901120034 77 0 0.0 0.0 0.00 0.00 0.00 88 1016.3
20260901114535 77 0 0.0 0.0 0.00 0.00 0.00 87 1016.4
20260901113036 77 0 0.0 0.0 0.00 0.00 0.00 87 1016.3
20260901111536 78 0 0.0 0.0 0.00 0.00 0.00 86 1016.3
20260901110037 78 0 0.0 0.0 0.00 0.00 0.00 85 1016.3
20260901104539 78 0 0.0 0.0 0.00 0.00 0.00 85 1016.2
20260901103037 79 0 0.0 0.0 0.00 0.00 0.00 84 1016.0
20260901101535 79 0 0.0 0.0 0.00 0.00 0.00 84 1015.9
20260901100034 80 0 0.0 1.0 0.00 0.00 0.00 84 1016.0
20260901094539 80 0 0.0 6.0 0.00 0.00 0.00 83 1016.2
20260901093035 80 258 0.0 3.0 0.00 0.00 0.00 83 1016.2
20260901091533 81 281 1.0 5.0 0.00 0.00 0.00 82 1016.4
20260901090033 81 221 0.0 2.0 0.00 0.00 0.00 82 1016.3
20260901084533 81 239 1.0 4.0 0.00 0.00 0.00 81 1016.2
20260901083037 81 0 0.0 4.0 0.00 0.00 0.00 80 1016.2
20260901081534 81 0 0.0 2.0 0.00 0.00 0.00 78 1016.2
20260901080038 82 223 0.0 2.0 0.00 0.00 0.00 77 1016.2
20260901074544 82 0 0.0 4.0 0.00 0.00 0.00 76 1016.2
20260901073040 82 212 0.0 2.0 0.00 0.00 0.00 75 1016.2
20260901071536 83 0 0.0 3.0 0.00 0.00 0.00 74 1016.2
20260901070036 83 221 0.0 4.0 0.00 0.00 0.00 73 1016.2
20260901064537 83 0 1.0 2.0 0.00 0.00 0.00 73 1016.2
20260901063033 83 0 0.0 2.0 0.00 0.00 0.00 71 1016.2
20260901061535 84 264 0.0 3.0 0.00 0.00 0.00 69 1016.0
20260901060036 84 255 0.0 4.0 0.00 0.00 0.00 69 1015.8
20260901054535 85 264 0.0 3.0 0.00 0.00 0.00 68 1015.8
20260901053047 85 243 3.0 10.0 0.00 0.00 0.00 66 1015.8
20260901051556 85 240 0.0 3.0 0.00 0.00 0.00 67 1015.8
20260901050035 86 276 0.0 6.0 0.00 0.00 0.00 65 1015.7
20260901044535 86 288 0.0 3.0 0.00 0.00 0.00 63 1015.6
20260901043039 86 133 1.0 5.0 0.00 0.00 0.00 61 1015.7
20260901041550 87 330 0.0 5.0 0.00 0.00 0.00 60 1015.5
20260901040036 87 347 0.0 5.0 0.00 0.00 0.00 58 1015.6
20260901034536 88 45 0.0 4.0 0.00 0.00 0.00 57 1015.4
20260901033034 88 124 2.0 6.0 0.00 0.00 0.00 55 1015.3
20260901031549 89 117 1.0 5.0 0.00 0.00 0.00 52 1015.0
20260901030033 90 25 2.0 7.0 0.00 0.00 0.00 50 1014.9
20260901024536 90 0 1.0 11.0 0.00 0.00 0.00 48 1014.7
20260901023040 91 56 3.0 7.0 0.00 0.00 0.00 45 1014.4
20260901021535 92 58 2.0 6.0 0.00 0.00 0.00 43 1014.0
20260901020035 92 33 3.0 9.0 0.00 0.00 0.00 42 1013.9
20260901014542 93 74 3.0 8.0 0.00 0.00 0.00 41 1013.7
20260901013036 94 107 2.0 7.0 0.00 0.00 0.00 40 1013.7
20260901011534 94 100 1.0 6.0 0.00 0.00 0.00 39 1013.5
20260901010032 95 126 2.0 8.0 0.00 0.00 0.00 39 1013.3
20260901004537 95 92 4.0 10.0 0.00 0.00 0.00 38 1013.4
20260901003035 96 118 0.0 4.0 0.00 0.00 0.00 37 1013.4
20260901001539 96 65 4.0 8.0 0.00 0.00 0.00 36 1013.3
20260901000034 96 96 0.0 5.0 0.00 0.00 0.00 37 1013.2
20260831234535 96 63 2.0 5.0 0.00 0.00 0.00 38 1013.2
20260831233033 97 227 1.0 5.0 0.00 0.00 0.00 38 1013.1
20260831231532 97 95 3.0 7.0 0.00 0.00 0.00 37 1013.2
20260831230034 97 109 4.0 10.0 0.00 0.00 0.00 38 1013.2
20260831224532 98 268 1.0 10.0 0.00 0.00 0.00 38 1013.2
20260831223033 99 143 0.0 4.0 0.00 0.00 0.00 37 1013.4
20260831221536 99 105 1.0 5.0 0.00 0.00 0.00 37 1013.6
20260831220031 99 70 3.0 8.0 0.00 0.00 0.00 38 1013.5
20260831214533 98 65 3.0 10.0 0.00 0.00 0.00 39 1013.9
20260831213031 99 202 1.0 6.0 0.00 0.00 0.00 40 1014.0
20260831211535 98 261 1.0 3.0 0.00 0.00 0.00 40 1014.1
20260831210033 97 65 3.0 8.0 0.00 0.00 0.00 41 1014.3
20260831204531 100 58 1.0 4.0 0.00 0.00 0.00 40 1014.5